DW5759 Weather Reports


Display with metric or nautical units.
time (UTC)temp
F
wind
direction
speed
MPH
gust
MPH
rain 1hr
in
rain 24hr
in
rain mn
in
humidity
%
barometer
mb
20260904123027 69 336 0.0 0.0 0.00 0.09 0.08 96 1012.0
20260904121528 68 336 0.0 0.0 0.01 0.09 0.08 96 1011.9
20260904120018 68 336 0.0 0.0 0.01 0.10 0.08 96 1011.8
20260904114538 67 336 0.0 0.0 0.01 0.10 0.08 95 1011.6
20260904113038 67 336 0.0 0.0 0.01 0.10 0.08 95 1011.6
20260904111506 67 336 0.0 0.0 0.00 0.09 0.07 95 1011.3
20260904110032 67 336 0.0 0.0 0.00 0.10 0.07 95 1011.2
20260904104534 67 336 0.0 0.0 0.00 0.10 0.07 95 1011.1
20260904103034 67 336 0.0 0.0 0.00 0.11 0.07 95 1010.9
20260904101530 68 336 0.0 0.0 0.01 0.11 0.07 95 1010.9
20260904100007 68 336 0.0 0.0 0.01 0.11 0.07 95 1011.0
20260904094515 69 332 0.0 0.0 0.01 0.11 0.07 95 1010.9
20260904093020 69 332 0.0 0.0 0.01 0.12 0.07 95 1011.1
20260904091526 69 332 0.0 0.0 0.00 0.12 0.06 95 1010.9
20260904090029 69 332 0.0 0.0 0.01 0.12 0.06 95 1010.7
20260904084511 69 332 0.0 0.0 0.01 0.13 0.06 95 1010.6
20260904083016 70 332 0.0 0.0 0.02 0.14 0.06 95 1010.2
20260904081523 70 332 0.0 0.0 0.02 0.14 0.06 95 1010.1
20260904080024 70 332 0.0 0.0 0.02 0.14 0.05 95 1010.0
20260904074558 70 332 0.0 0.0 0.03 0.15 0.05 95 1010.0
20260904073012 70 332 0.0 0.0 0.03 0.14 0.04 95 1010.1
20260904071529 70 332 0.0 0.0 0.03 0.14 0.04 95 1010.2
20260904070026 70 332 0.0 0.0 0.03 0.14 0.03 94 1010.7
20260904064505 70 339 0.0 0.0 0.02 0.14 0.02 95 1010.9
20260904063009 70 339 0.0 0.0 0.01 0.13 0.01 94 1011.1
20260904061512 71 339 0.0 0.0 0.01 0.14 0.01 94 1011.0
20260904060004 71 339 0.0 0.0 0.00 0.14 0.00 94 1011.2
20260904054507 71 339 0.0 0.0 0.00 0.16 0.00 94 1011.2
20260904053009 71 305 0.0 0.0 0.00 0.17 0.00 93 1011.2
20260904051517 71 301 0.0 0.0 0.00 0.18 0.00 93 1011.1
20260904050020 71 301 0.0 0.0 0.00 0.20 0.00 93 1011.1
20260904044505 71 301 0.0 0.0 0.00 0.22 0.00 93 1011.3
20260904043004 71 301 0.0 0.0 0.00 0.24 0.00 93 1011.4
20260904041510 71 289 0.0 0.0 0.00 0.27 0.00 93 1011.5
20260904040014 71 312 0.0 0.0 0.00 0.31 0.00 93 1011.4
20260904034522 71 312 0.0 0.0 0.00 0.33 0.31 94 1011.7
20260904033004 71 312 0.0 1.0 0.00 0.34 0.31 93 1011.7
20260904031506 71 312 0.0 0.0 0.00 0.34 0.31 93 1011.8
20260904030013 72 312 0.0 0.0 0.00 0.34 0.31 93 1011.7
20260904024516 72 312 0.0 0.0 0.00 0.34 0.31 93 1012.0
20260904023031 72 312 0.0 0.0 0.00 0.34 0.31 93 1012.1
20260904021505 72 299 0.0 0.0 0.00 0.34 0.31 93 1012.1
20260904020011 73 299 0.0 0.0 0.00 0.34 0.31 93 1012.3
20260904014515 73 298 0.0 0.0 0.00 0.34 0.31 92 1012.0
20260904013019 73 297 0.0 0.0 0.00 0.34 0.31 92 1012.1
20260904011526 73 295 0.0 0.0 0.00 0.34 0.31 92 1012.2
20260904010007 73 290 0.0 0.0 0.00 0.34 0.31 92 1012.1
20260904004513 73 290 0.0 0.0 0.00 0.34 0.31 91 1012.1
20260904003014 74 293 0.0 0.0 0.00 0.34 0.31 92 1012.1
20260904001516 74 338 0.0 0.0 0.00 0.34 0.31 91 1011.8
20260904000106 75 338 0.0 0.0 0.00 0.34 0.31 91 1011.7
20260903234508 75 330 0.0 0.0 0.00 0.34 0.31 90 1011.9
20260903233008 76 316 0.0 0.0 0.00 0.34 0.31 89 1011.4
20260903231515 77 295 0.0 0.0 0.00 0.35 0.31 89 1011.1
20260903230027 77 285 0.0 0.0 0.00 0.35 0.31 88 1011.5
20260903224540 78 285 0.0 0.0 0.00 0.35 0.31 87 1011.4
20260903223005 78 284 0.0 1.0 0.00 0.35 0.31 87 1011.5
20260903221524 79 274 0.0 0.0 0.00 0.35 0.31 87 1011.2
20260903220019 79 257 0.0 0.0 0.00 0.35 0.31 85 1011.1
20260903214534 80 257 0.0 0.0 0.00 0.35 0.31 84 1011.3
20260903213016 80 252 0.0 0.0 0.00 0.35 0.31 83 1011.3
20260903211511 81 265 0.0 0.0 0.00 0.35 0.31 82 1011.2
20260903210014 81 266 0.0 0.0 0.00 0.35 0.31 80 1011.2
20260903204524 82 255 0.0 0.0 0.00 0.35 0.31 79 1011.1
20260903203009 82 246 0.0 0.0 0.00 0.35 0.31 80 1011.3
20260903201509 82 261 0.0 0.0 0.00 0.35 0.31 77 1011.3
20260903200016 83 205 0.0 0.0 0.00 0.35 0.31 75 1011.4
20260903194516 84 225 0.0 0.0 0.00 0.35 0.31 74 1011.5
20260903193027 83 152 0.0 0.0 0.00 0.35 0.31 75 1011.5
20260903191516 81 234 0.0 0.0 0.00 0.35 0.31 78 1011.9
20260903190010 80 162 0.0 0.0 0.00 0.35 0.31 82 1011.9
20260903184521 80 148 0.0 0.0 0.00 0.35 0.31 81 1012.0
20260903183020 81 171 0.0 0.0 0.00 0.35 0.31 78 1012.2
20260903181540 81 1 0.0 2.0 0.00 0.35 0.31 78 1012.3
20260903180007 80 282 0.0 0.0 0.00 0.36 0.31 80 1012.4
20260903174512 80 282 0.0 0.0 0.00 0.39 0.31 80 1012.4
20260903173016 80 188 0.0 0.0 0.00 0.43 0.31 80 1012.4
20260903171533 79 221 0.0 0.0 0.00 0.48 0.31 82 1012.8
20260903170005 78 217 0.0 0.0 0.00 0.48 0.31 84 1012.7
20260903164509 78 188 0.0 1.0 0.00 0.48 0.31 82 1012.9
20260903163018 78 25 0.0 0.0 0.01 0.48 0.31 84 1013.0
20260903161520 79 175 0.0 2.0 0.01 0.48 0.31 84 1013.2
20260903160027 78 310 0.0 2.0 0.01 0.48 0.31 83 1013.2
20260903154508 76 262 0.0 0.0 0.01 0.48 0.31 86 1013.1
20260903153010 75 224 0.0 5.0 0.00 0.47 0.30 89 1013.4
20260903151514 74 168 0.0 1.0 0.00 0.47 0.30 92 1013.5
20260903150032 72 241 0.0 1.0 0.00 0.47 0.30 94 1013.6
20260903144530 71 248 0.0 0.0 0.00 0.47 0.30 95 1013.6
20260903143009 70 329 0.0 0.0 0.00 0.47 0.30 96 1013.5
20260903141518 69 18 0.0 0.0 0.00 0.47 0.30 97 1013.6
20260903140022 69 241 0.0 0.0 0.00 0.47 0.30 96 1013.3
20260903134533 68 238 0.0 0.0 0.00 0.47 0.30 96 1013.4
20260903133029 68 245 0.0 0.0 0.00 0.47 0.30 97 1013.5
20260903131511 68 133 0.0 0.0 0.00 0.47 0.30 96 1013.4
20260903130014 67 133 0.0 0.0 0.01 0.47 0.30 96 1013.3
20260903124525 67 134 0.0 0.0 0.01 0.47 0.30 96 1013.6